When you browse on this site, cookies collect data to enhance your experience and personalize the content and advertising you see.
Visit our Privacy Policy to learn more. By continuing to use the site, you agree to this use of cookies and data.
  • In Schweiz
  • Länderverzeichnis
  • Für 7 Tage
  • Wassertemperatur
  • Wetterkarte
  • Widgets
  • user-avatar
    Anmelden

    Stündliche Wetter Ugledar

    Heute, 25 Februar, Dienstag

    Zeit Temperatur Niederschläge Wind Luftdruck Luftfeuchtigkeit
    00:00 -5°C° 0.5 mm 12 m/S 730 mmHg 95%
    01:00 -5°C° 0.5 mm 12 m/S 731 mmHg 95%
    02:00 -5°C° 0.5 mm 13 m/S 732 mmHg 95%
    03:00 -5°C° 0.3 mm 12 m/S 734 mmHg 90%
    04:00 -3°C° 0.3 mm 11 m/S 735 mmHg 86%
    05:00 -3°C° 0.3 mm 10 m/S 737 mmHg 81%
    06:00 -3°C° 0 mm 10 m/S 738 mmHg 82%
    07:00 -3°C° 0 mm 9 m/S 739 mmHg 82%
    08:00 -3°C° 0 mm 9 m/S 740 mmHg 83%
    09:00 -2°C° 0 mm 8 m/S 741 mmHg 80%
    10:00 -1°C° 0 mm 8 m/S 742 mmHg 76%
    11:00 0°C° 0 mm 7 m/S 742 mmHg 73%
    12:00 +2°C° 0 mm 7 m/S 742 mmHg 68%
    13:00 +2°C° 0 mm 6 m/S 743 mmHg 62%
    14:00 +3°C° 0 mm 6 m/S 743 mmHg 57%
    15:00 +2°C° 0 mm 5 m/S 743 mmHg 60%
    16:00 +1°C° 0 mm 4 m/S 743 mmHg 64%
    17:00 +2°C° 0 mm 3 m/S 743 mmHg 67%
    18:00 +1°C° 0 mm 3 m/S 743 mmHg 69%
    19:00 +1°C° 0 mm 3 m/S 743 mmHg 71%
    20:00 0°C° 0 mm 3 m/S 744 mmHg 73%
    21:00 0°C° 0 mm 3 m/S 743 mmHg 76%
    22:00 0°C° 0 mm 3 m/S 743 mmHg 79%
    23:00 -1°C° 0 mm 4 m/S 743 mmHg 82%

    Morgen, 26 Februar, Mittwoch

    Zeit Temperatur Niederschläge Wind Luftdruck Luftfeuchtigkeit
    00:00 -1°C° 0 mm 4 m/S 742 mmHg 83%
    01:00 -1°C° 0 mm 4 m/S 742 mmHg 85%
    02:00 -1°C° 0 mm 5 m/S 742 mmHg 87%
    03:00 -1°C° 0 mm 5 m/S 742 mmHg 87%
    04:00 -1°C° 0 mm 5 m/S 741 mmHg 88%
    05:00 -1°C° 0 mm 5 m/S 741 mmHg 89%
    06:00 -1°C° 0 mm 6 m/S 741 mmHg 86%
    07:00 0°C° 0 mm 7 m/S 741 mmHg 84%
    08:00 0°C° 0 mm 7 m/S 740 mmHg 82%
    09:00 +2°C° 0 mm 8 m/S 740 mmHg 76%
    10:00 +4°C° 0 mm 8 m/S 740 mmHg 70%
    11:00 +5°C° 0 mm 9 m/S 739 mmHg 65%
    12:00 +6°C° 0 mm 9 m/S 739 mmHg 63%
    13:00 +6°C° 0 mm 10 m/S 739 mmHg 61%
    14:00 +6°C° 0 mm 10 m/S 738 mmHg 60%
    15:00 +5°C° 0 mm 10 m/S 738 mmHg 62%
    16:00 +5°C° 0 mm 9 m/S 738 mmHg 65%
    17:00 +4°C° 0 mm 8 m/S 737 mmHg 68%
    18:00 +4°C° 0 mm 8 m/S 737 mmHg 71%
    19:00 +2°C° 0 mm 8 m/S 737 mmHg 73%
    20:00 +2°C° 0 mm 8 m/S 737 mmHg 75%
    21:00 +2°C° 0 mm 8 m/S 737 mmHg 76%
    22:00 +2°C° 0 mm 8 m/S 737 mmHg 76%
    23:00 +3°C° 0 mm 7 m/S 736 mmHg 76%

    übermorgen, 27 Februar, Donnerstag

    Zeit Temperatur Niederschläge Wind Luftdruck Luftfeuchtigkeit
    00:00 +3°C° 0 mm 7 m/S 736 mmHg 77%
    01:00 +3°C° 0 mm 7 m/S 736 mmHg 78%
    02:00 +2°C° 0 mm 6 m/S 735 mmHg 79%
    03:00 +3°C° 0 mm 6 m/S 735 mmHg 80%
    04:00 +3°C° 0 mm 6 m/S 735 mmHg 80%
    05:00 +4°C° 0 mm 6 m/S 734 mmHg 80%
    06:00 +4°C° 0 mm 7 m/S 734 mmHg 80%
    07:00 +5°C° 0 mm 7 m/S 734 mmHg 79%
    08:00 +5°C° 0 mm 7 m/S 734 mmHg 79%
    09:00 +6°C° 0 mm 8 m/S 734 mmHg 75%
    10:00 +7°C° 0 mm 8 m/S 734 mmHg 72%
    11:00 +10°C° 0 mm 8 m/S 734 mmHg 69%
    12:00 +10°C° 0 mm 8 m/S 734 mmHg 69%
    13:00 +11°C° 0 mm 8 m/S 734 mmHg 70%
    14:00 +11°C° 0 mm 8 m/S 734 mmHg 70%
    15:00 +11°C° 0 mm 8 m/S 734 mmHg 72%
    16:00 +11°C° 0 mm 8 m/S 733 mmHg 75%
    17:00 +10°C° 0 mm 7 m/S 733 mmHg 77%
    18:00 +10°C° 0 mm 7 m/S 734 mmHg 77%
    19:00 +9°C° 0 mm 8 m/S 734 mmHg 78%
    20:00 +9°C° 0 mm 8 m/S 734 mmHg 78%
    21:00 +8°C° 0.2 mm 7 m/S 733 mmHg 78%
    22:00 +8°C° 0.2 mm 7 m/S 733 mmHg 77%
    23:00 +7°C° 0.2 mm 6 m/S 733 mmHg 77%

    28 Februar, Freitag

    Zeit Temperatur Niederschläge Wind Luftdruck Luftfeuchtigkeit
    00:00 +6°C° 0.4 mm 7 m/S 732 mmHg 79%
    01:00 +6°C° 0.4 mm 7 m/S 732 mmHg 80%
    02:00 +6°C° 0.4 mm 8 m/S 731 mmHg 82%
    03:00 +6°C° 0.6 mm 8 m/S 731 mmHg 85%
    04:00 +6°C° 0.6 mm 8 m/S 730 mmHg 88%
    05:00 +6°C° 0.6 mm 9 m/S 730 mmHg 91%
    06:00 +5°C° 0.1 mm 9 m/S 730 mmHg 86%
    07:00 +4°C° 0.1 mm 8 m/S 730 mmHg 82%
    08:00 +2°C° 0.1 mm 8 m/S 730 mmHg 78%
    09:00 +2°C° 0.1 mm 8 m/S 731 mmHg 81%
    10:00 +2°C° 0.1 mm 8 m/S 732 mmHg 85%
    11:00 +2°C° 0.1 mm 8 m/S 733 mmHg 88%
    12:00 +1°C° 0 mm 9 m/S 734 mmHg 82%
    13:00 +1°C° 0 mm 9 m/S 736 mmHg 76%
    14:00 +1°C° 0 mm 9 m/S 737 mmHg 71%
    15:00 +1°C° 0 mm 8 m/S 738 mmHg 69%
    16:00 +2°C° 0 mm 6 m/S 739 mmHg 67%
    17:00 +3°C° 0 mm 4 m/S 740 mmHg 66%
    18:00 +3°C° 0 mm 4 m/S 740 mmHg 68%
    19:00 +2°C° 0 mm 3 m/S 741 mmHg 69%
    20:00 +2°C° 0 mm 2 m/S 741 mmHg 71%
    21:00 +1°C° 0 mm 3 m/S 741 mmHg 72%
    22:00 +1°C° 0 mm 3 m/S 741 mmHg 73%
    23:00 0°C° 0 mm 3 m/S 741 mmHg 73%

    29 Februar, Samstag

    Zeit Temperatur Niederschläge Wind Luftdruck Luftfeuchtigkeit
    00:00 0°C° 0 mm 3 m/S 741 mmHg 74%
    01:00 0°C° 0 mm 3 m/S 741 mmHg 74%
    02:00 0°C° 0 mm 3 m/S 740 mmHg 75%
    03:00 0°C° 0 mm 3 m/S 740 mmHg 79%
    04:00 -1°C° 0 mm 4 m/S 740 mmHg 83%
    05:00 0°C° 0 mm 4 m/S 739 mmHg 86%
    06:00 0°C° 0 mm 4 m/S 739 mmHg 87%
    07:00 +1°C° 0 mm 5 m/S 739 mmHg 87%
    08:00 +1°C° 0 mm 5 m/S 739 mmHg 88%
    09:00 +1°C° 0.4 mm 5 m/S 738 mmHg 89%
    10:00 +1°C° 0.4 mm 6 m/S 738 mmHg 91%
    11:00 +2°C° 0.4 mm 6 m/S 737 mmHg 92%
    12:00 0°C° 1.4 mm 7 m/S 737 mmHg 94%
    13:00 0°C° 1.4 mm 7 m/S 736 mmHg 95%
    14:00 0°C° 1.4 mm 7 m/S 736 mmHg 96%
    15:00 0°C° 0.5 mm 7 m/S 736 mmHg 96%
    16:00 +1°C° 0.5 mm 6 m/S 736 mmHg 95%
    17:00 +1°C° 0.5 mm 6 m/S 736 mmHg 95%
    18:00 +1°C° 0.5 mm 6 m/S 736 mmHg 95%
    19:00 -1°C° 0.5 mm 7 m/S 736 mmHg 95%
    20:00 -1°C° 0.5 mm 7 m/S 737 mmHg 96%
    21:00 -2°C° 0.5 mm 8 m/S 737 mmHg 95%
    22:00 -2°C° 0.5 mm 8 m/S 738 mmHg 94%
    23:00 -3°C° 0.5 mm 9 m/S 738 mmHg 93%

    1 März, Sonntag

    Zeit Temperatur Niederschläge Wind Luftdruck Luftfeuchtigkeit
    00:00 -3°C° 0.1 mm 9 m/S 739 mmHg 89%
    01:00 -3°C° 0.1 mm 9 m/S 739 mmHg 84%
    02:00 -3°C° 0.1 mm 9 m/S 740 mmHg 79%
    03:00 -4°C° 0 mm 8 m/S 741 mmHg 79%
    04:00 -4°C° 0 mm 8 m/S 741 mmHg 78%
    05:00 -4°C° 0 mm 7 m/S 742 mmHg 77%
    06:00 -3°C° 0 mm 7 m/S 743 mmHg 74%
    07:00 -3°C° 0 mm 7 m/S 743 mmHg 71%
    08:00 -2°C° 0 mm 7 m/S 744 mmHg 68%
    09:00 -1°C° 0 mm 6 m/S 744 mmHg 64%
    10:00 +1°C° 0 mm 6 m/S 744 mmHg 60%
    11:00 +2°C° 0 mm 6 m/S 745 mmHg 56%
    12:00 +3°C° 0 mm 6 m/S 745 mmHg 53%
    13:00 +5°C° 0 mm 5 m/S 745 mmHg 51%
    14:00 +5°C° 0 mm 5 m/S 745 mmHg 48%
    15:00 +5°C° 0 mm 4 m/S 745 mmHg 53%
    16:00 +4°C° 0 mm 3 m/S 745 mmHg 58%
    17:00 +5°C° 0 mm 2 m/S 745 mmHg 63%
    18:00 +3°C° 0 mm 3 m/S 744 mmHg 69%
    19:00 +3°C° 0 mm 3 m/S 744 mmHg 74%
    20:00 +1°C° 0 mm 4 m/S 744 mmHg 80%
    21:00 +1°C° 0 mm 4 m/S 744 mmHg 79%
    22:00 +1°C° 0 mm 5 m/S 744 mmHg 78%
    23:00 +1°C° 0 mm 5 m/S 744 mmHg 77%
    Mehr zeigen